GFSMA_850_rhum_126.txt.gz
RH
94 94 64 68 83 78 58 30 37 52 63 61 68 69 70 76 66 47 39 38 40 41 42 44 46 50 54 54 52 51 52 53 56 58 59 60 62 65 68 70 71 72 67
87 85 58 70 86 70 46 38 78 66 68 68 68 70 70 70 66 47 44 41 41 42 44 46 49 52 56 59 58 57 55 54 56 60 62 64 65 67 69 72 76 77 76
86 89 56 78 83 84 45 70 81 79 76 75 76 69 67 60 65 58 49 49 47 46 48 49 51 54 56 61 63 63 63 58 61 63 65 68 71 74 77 80 79 79 80
93 84 71 82 82 88 71 79 80 81 78 79 81 80 80 81 72 69 65 47 47 48 49 52 53 55 58 61 63 67 67 67 68 69 67 71 70 70 71 77 79 80 80
96 85 88 85 86 84 78 80 82 82 82 81 82 80 81 80 79 84 75 66 65 59 51 52 57 58 57 60 63 67 71 75 79 81 80 79 77 78 80 78 81 81 82
98 86 84 86 84 83 79 80 82 84 81 80 81 82 73 70 60 60 62 68 82 78 71 62 60 61 65 65 68 69 73 88 89 91 92 87 84 82 82 76 78 79 84
87 90 84 83 85 83 80 79 76 85 84 79 80 70 65 61 61 63 65 72 78 78 68 69 67 71 72 73 82 79 75 76 83 89 90 90 90 91 90 82 81 86 80
97 92 86 82 88 85 82 78 74 83 82 83 76 82 82 84 80 63 68 69 67 69 76 78 74 76 90 90 95 88 80 77 80 87 89 92 94 91 93 85 80 78 71
93 92 80 85 92 90 79 72 68 71 69 76 71 76 79 78 72 72 74 73 78 82 82 78 79 83 83 94 96 98 74 69 79 84 87 92 94 97 93 86 83 79 63
92 92 95 91 94 90 80 76 68 61 59 54 63 78 83 80 73 79 84 85 90 87 85 84 90 87 91 89 93 94 83 77 77 85 94 99 99 93 91 90 85 86 70
90 88 93 94 92 89 84 74 68 66 61 57 68 80 82 79 75 80 80 80 83 83 83 76 81 92 98 96 89 86 81 82 89 94 100 96 96 90 89 94 89 86 82
91 94 96 88 85 92 79 70 64 57 58 70 83 83 79 81 83 86 88 88 95 76 73 70 73 91 92 98 96 93 93 94 99 99 98 90 87 82 77 72 77 87 80
88 97 99 99 97 91 75 66 61 58 52 56 86 92 86 79 78 86 96 98 98 87 81 75 74 90 97 98 99 100 100 94 83 83 84 86 84 72 69 79 93 90 82
87 92 98 95 91 86 79 62 55 49 52 89 90 82 76 73 72 80 77 84 96 98 91 77 79 78 78 78 84 86 86 84 79 81 83 76 78 76 81 91 95 89 85
86 78 85 92 89 71 57 56 48 72 92 87 77 74 76 76 79 67 70 84 96 98 92 92 88 90 92 94 96 99 98 94 92 96 95 92 90 92 99 97 97 94 89
88 91 93 90 96 95 71 76 86 90 89 82 74 75 76 84 77 70 63 92 73 96 98 100 99 95 94 93 97 98 99 97 100 99 98 99 100 99 98 100 99 100 100
92 88 85 96 99 93 98 97 85 88 82 76 72 68 69 69 55 72 57 76 78 96 98 98 92 82 67 54 55 54 54 57 57 64 96 93 96 94 96 100 95 100 96
100 97 97 99 100 97 92 85 81 78 74 74 75 78 76 69 55 72 67 79 90 92 74 59 51 51 52 51 48 47 47 46 52 66 73 86 98 95 96 100 100 100 100
100 99 100 99 96 86 79 76 79 85 85 82 89 93 88 66 55 68 74 79 70 55 50 49 50 50 51 51 51 49 47 48 59 76 99 98 97 97 95 100 100 99 100
100 100 99 96 86 84 80 79 81 87 88 96 98 100 98 84 67 77 82 62 50 52 52 54 54 54 55 55 55 56 55 60 66 78 93 98 93 98 99 100 100 99 100
100 100 100 98 97 87 78 85 90 94 91 88 99 93 95 79 81 91 59 52 55 56 54 54 58 61 63 63 62 66 67 73 85 94 90 94 100 100 100 99 99 100 100
99 97 88 96 95 78 79 86 94 95 87 100 100 98 97 96 97 56 55 58 54 54 55 60 65 66 69 73 70 69 75 78 79 93 99 99 100 100 100 100 100 100 100
94 95 100 98 90 89 81 97 96 96 100 94 98 98 98 96 57 59 59 57 59 60 62 64 67 70 73 77 78 74 76 80 80 90 100 89 95 99 100 100 100 100 100
96 96 93 93 91 86 90 89 96 98 99 99 99 100 80 58 60 59 60 61 62 63 66 68 68 70 83 90 86 78 77 76 76 90 100 98 97 99 99 100 100 100 100
90 91 92 91 89 95 99 98 99 100 99 100 96 64 59 62 61 63 64 65 67 68 71 72 74 77 84 92 94 86 80 77 76 85 99 99 99 98 99 99 99 100 99
90 87 84 83 90 98 100 100 100 100 96 69 58 61 64 65 66 67 69 70 73 74 78 78 78 76 78 85 91 87 82 74 64 72 90 99 99 99 98 99 99 99 98

GFSMA_850_rhum_129.txt.gz
RH
96 99 84 63 65 69 71 32 25 30 47 61 72 75 66 55 45 38 37 38 40 41 42 44 47 51 54 55 54 53 51 54 56 57 57 59 62 65 68 70 71 74 75
93 98 83 59 53 65 67 28 28 34 46 61 70 71 63 57 52 44 40 40 41 42 44 46 48 51 54 57 58 58 57 54 54 55 58 62 65 68 72 72 76 76 77
97 95 81 58 60 69 57 29 42 51 64 68 69 68 66 62 52 52 47 44 44 44 45 46 47 49 52 55 60 63 63 61 61 59 63 65 67 67 68 72 74 76 77
98 89 81 57 69 68 48 40 56 67 72 70 69 64 67 63 57 50 48 48 48 46 46 48 50 51 54 57 59 63 66 67 66 70 73 74 76 75 75 78 79 79 80
94 87 79 57 75 64 42 54 75 72 77 78 77 77 80 78 75 68 62 59 56 54 56 54 53 57 59 57 60 62 65 67 73 78 84 88 88 84 81 79 75 77 82
93 87 82 56 80 69 52 73 73 78 76 80 83 82 84 79 78 79 73 64 63 61 62 62 62 60 60 63 67 68 70 78 83 88 91 95 94 92 90 90 84 76 82
99 86 77 62 79 84 66 75 81 82 82 83 84 82 79 76 64 61 65 67 69 68 65 71 72 71 75 81 78 87 84 79 81 83 89 90 90 91 90 87 89 80 71
94 81 77 76 87 87 79 81 81 85 81 83 82 75 70 76 82 79 72 71 70 69 73 76 77 74 78 83 88 96 93 83 81 83 84 84 88 89 91 91 91 89 80
95 85 80 78 86 85 78 76 80 81 79 83 74 65 84 81 77 74 74 75 75 79 81 84 87 86 89 91 91 93 95 93 90 88 79 82 90 93 97 95 94 88 79
87 80 86 82 83 83 78 76 78 78 76 73 73 64 60 63 76 81 82 82 79 80 84 84 90 92 95 94 90 96 99 100 97 89 79 86 96 98 93 93 94 94 81
84 86 85 87 81 78 83 78 75 79 74 65 59 64 73 74 68 66 82 82 81 82 83 77 69 69 89 95 98 98 96 93 88 96 100 100 97 93 92 88 83 76 75
98 88 88 88 81 80 90 81 72 67 64 57 56 54 62 66 64 70 71 76 80 89 81 76 71 73 89 91 93 95 95 99 100 93 93 97 92 90 82 75 74 82 78
85 80 76 81 82 82 91 86 76 66 60 55 54 58 73 69 69 68 70 84 96 90 87 79 73 77 86 95 96 99 98 98 92 83 84 87 82 80 75 76 77 79 84
79 80 89 84 82 91 91 89 82 70 66 62 61 75 75 75 73 64 63 66 83 89 87 78 76 75 77 82 86 85 85 83 81 82 85 82 77 78 80 86 92 97 87
84 81 80 89 92 90 90 90 83 73 66 64 57 70 80 76 68 69 70 72 60 74 84 84 87 90 94 95 95 96 97 98 100 100 100 100 100 99 98 99 99 99 98
87 85 91 92 87 92 90 89 80 68 63 53 67 86 81 74 73 76 76 72 68 47 63 82 96 99 98 90 91 85 70 66 67 60 71 87 88 98 95 96 97 95 98
90 87 87 95 98 99 97 91 75 59 56 78 89 79 75 76 77 72 70 78 74 63 65 82 93 99 88 66 54 52 50 46 45 46 49 61 94 90 97 92 95 99 99
87 87 88 89 97 99 95 78 65 65 91 95 87 77 72 73 74 77 85 80 75 64 62 78 68 63 52 50 50 50 48 46 44 44 47 66 73 94 98 93 99 99 100
88 89 83 84 90 92 87 83 86 95 96 90 81 80 81 81 83 83 86 84 84 65 64 53 50 49 49 54 55 52 51 50 49 48 56 68 95 95 89 89 94 99 100
86 85 85 87 87 87 98 86 100 97 95 90 89 84 81 86 96 97 95 92 82 65 50 48 51 54 54 52 53 54 56 56 53 55 66 74 98 99 97 100 100 100 100
98 96 96 87 86 98 98 100 100 97 93 92 90 91 100 100 94 98 94 91 68 50 50 52 51 53 56 61 61 60 59 60 62 64 68 98 99 100 99 97 99 100 99
100 100 99 100 100 94 97 95 96 94 89 93 96 99 100 95 89 100 99 66 51 53 52 52 54 60 63 62 62 69 71 66 64 71 71 84 95 99 98 100 100 99 99
100 100 100 100 100 100 100 100 98 90 87 97 100 100 98 98 100 100 82 53 54 52 53 57 60 62 64 66 72 80 80 74 72 77 72 71 86 94 98 100 100 100 99
94 98 99 100 100 100 100 98 100 100 99 100 100 100 100 98 98 95 55 56 53 54 60 63 65 67 69 70 76 82 84 80 76 77 83 75 79 94 98 98 99 99 98
99 100 99 100 100 100 100 100 100 100 100 100 100 100 100 100 88 56 58 58 61 66 68 69 71 74 75 76 79 84 85 81 76 73 82 92 94 99 99 100 100 100 100
82 84 88 92 96 100 100 100 100 99 100 99 100 100 100 76 60 63 64 68 68 70 71 74 78 80 78 77 80 83 84 83 74 63 76 69 80 95 92 94 99 98 100

GFSMA_850_rhum_132.txt.gz
RH
92 98 91 74 77 82 74 52 24 32 51 65 62 62 58 56 41 38 37 37 37 38 39 42 46 49 52 53 54 54 51 53 52 55 56 59 61 62 65 65 69 69 73
89 97 91 77 71 83 77 44 25 34 52 62 63 63 59 60 49 39 39 38 40 40 42 44 47 49 52 56 58 58 59 56 57 56 58 60 65 65 67 67 68 70 72
88 98 92 82 65 82 77 33 28 43 56 66 63 63 62 59 53 43 39 40 41 43 44 45 47 50 52 55 57 60 62 64 62 64 64 65 70 73 73 73 75 76 76
82 97 94 87 63 79 79 30 29 39 56 60 62 66 62 57 52 49 49 45 46 44 44 45 49 52 53 55 57 59 61 66 69 70 76 80 83 84 81 79 75 73 77
85 89 95 90 65 66 78 31 35 41 54 63 67 66 63 58 58 56 58 58 53 56 56 56 54 53 55 61 66 64 64 67 74 79 84 87 90 92 90 89 85 84 77
85 86 94 93 62 65 74 37 42 56 57 64 70 68 75 75 74 66 63 64 65 64 64 64 68 69 69 69 72 74 76 80 76 81 85 90 93 93 92 92 93 95 90
87 82 91 92 62 66 68 42 57 67 76 76 79 84 86 86 84 76 72 70 64 63 62 69 75 79 78 79 79 85 83 85 85 82 81 83 83 85 88 89 92 94 87
89 84 89 89 68 54 65 54 64 77 79 80 82 85 88 86 82 73 71 71 70 64 66 74 78 80 79 81 86 90 88 86 88 82 82 79 79 84 87 91 95 100 93
94 86 85 86 68 55 58 54 66 73 78 83 81 76 80 69 66 76 69 72 70 71 78 82 84 86 86 87 89 92 87 94 97 98 95 85 82 89 94 93 93 88 91
100 85 83 86 73 58 61 54 69 76 74 82 85 73 57 56 73 73 75 78 79 80 83 86 89 85 85 95 90 89 88 98 93 98 92 85 96 97 92 90 86 86 82
98 87 87 87 69 64 67 68 74 82 78 75 73 73 62 63 64 65 76 78 80 82 84 88 85 73 73 79 89 91 97 96 92 85 95 100 98 85 89 86 79 71 72
98 96 96 79 75 69 68 77 75 82 78 75 66 59 54 54 62 62 62 71 73 82 87 90 78 73 77 89 92 90 99 98 98 100 94 82 79 81 80 74 79 74 69
100 99 98 85 76 69 74 78 77 78 79 78 71 60 54 58 55 62 62 63 68 83 87 83 78 74 84 86 91 91 98 96 96 90 88 82 77 77 75 76 72 76 79
96 98 98 87 81 78 77 80 80 77 79 80 76 68 58 62 68 62 63 57 68 81 82 80 74 70 71 79 90 89 91 88 89 91 86 89 91 90 90 92 92 92 94
93 91 95 89 86 84 81 82 81 85 79 72 72 62 57 56 73 72 69 64 64 65 73 76 82 81 75 88 89 88 86 79 78 69 69 84 88 98 94 93 95 95 97
71 74 96 93 87 89 88 86 85 90 81 72 66 63 64 78 79 78 70 69 63 64 67 73 86 93 74 81 82 76 62 51 48 45 45 44 51 62 59 60 88 89 91
79 85 84 83 78 80 91 88 80 89 86 80 72 71 77 81 87 81 75 72 69 70 80 83 88 97 82 77 63 46 46 45 46 45 44 44 45 45 52 84 95 96 99
80 76 76 80 89 82 88 80 92 88 90 84 74 70 72 90 88 80 80 78 71 77 81 80 76 77 68 51 47 45 46 44 45 46 44 45 50 68 82 98 97 93 99
82 85 85 79 82 86 91 94 87 88 88 82 72 66 75 90 84 82 81 79 85 91 89 83 76 61 50 45 45 46 45 47 51 50 48 48 58 77 90 96 94 94 100
87 84 86 89 86 85 85 86 95 99 95 78 66 75 92 84 80 83 84 86 93 93 93 84 59 50 48 45 47 50 51 55 58 57 55 54 55 75 100 96 90 91 93
92 88 85 92 91 89 86 90 96 96 85 68 75 100 96 94 91 92 90 92 99 92 89 74 58 50 45 49 53 54 57 59 61 61 61 62 68 98 98 99 100 99 100
98 91 86 90 93 92 87 87 87 85 76 82 100 100 99 99 90 94 100 100 98 90 63 53 52 49 53 58 59 59 59 62 64 63 62 66 71 92 98 99 96 100 100
100 100 100 95 90 87 89 93 94 93 94 98 99 100 96 90 99 100 100 100 95 72 61 56 54 55 59 62 62 61 59 68 69 64 61 63 73 84 97 99 99 99 100
96 100 100 100 100 100 99 100 95 99 100 99 97 86 98 100 99 100 100 100 80 62 58 58 58 61 64 64 63 63 64 72 71 70 67 66 72 77 94 98 97 99 99
98 95 92 86 90 96 98 100 100 100 99 100 98 99 99 100 99 100 100 85 62 62 59 60 64 65 65 67 69 68 73 80 79 74 70 72 78 76 82 94 98 100 100
100 100 100 99 94 94 94 94 96 98 98 94 100 100 100 100 100 99 97 61 61 59 61 66 67 67 72 75 75 74 78 81 80 75 70 72 57 46 80 90 98 99 98

GFSMA_850_rhum_135.txt.gz
RH
94 98 97 83 69 79 67 67 26 31 39 50 52 58 56 49 38 36 36 35 36 37 39 43 47 51 53 54 55 56 55 55 54 54 56 59 63 65 67 67 68 67 70
92 93 98 90 69 79 70 66 26 30 44 49 55 61 56 50 40 38 37 37 38 39 42 44 47 49 53 54 58 59 61 61 60 60 61 63 67 68 70 72 72 75 73
99 87 93 90 74 76 76 69 26 39 54 55 60 61 58 55 48 39 38 39 40 42 44 45 47 50 51 54 56 59 62 65 66 66 68 72 75 79 78 77 77 77 77
98 88 87 91 82 72 80 72 28 38 59 62 56 61 57 56 53 48 41 39 42 43 45 46 47 50 50 54 55 60 61 65 70 72 73 78 85 89 93 90 89 87 90
99 94 88 88 84 75 81 72 29 36 56 67 62 61 60 57 55 53 51 48 52 49 51 50 53 54 56 59 63 68 79 84 71 80 82 86 92 94 95 91 92 95 100
100 95 87 80 78 80 84 74 29 38 55 63 65 66 68 65 63 63 64 65 60 58 60 60 64 72 74 76 79 84 81 80 84 87 84 82 86 84 86 88 93 92 93
100 94 87 82 80 88 75 75 32 35 57 66 68 74 77 77 78 75 75 69 66 65 64 66 75 79 79 81 81 85 86 84 90 92 91 89 86 81 78 86 91 94 95
87 98 92 81 86 94 78 79 37 35 51 67 71 76 86 86 84 79 75 69 66 68 66 70 77 80 81 82 83 86 89 88 88 91 92 90 84 75 80 90 92 97 90
97 94 99 84 85 92 79 70 49 39 57 68 69 78 90 88 78 80 68 65 68 68 68 72 79 82 85 85 88 92 89 89 82 86 93 90 80 88 94 92 93 87 85
87 73 92 93 86 90 80 65 60 40 56 68 78 81 72 58 67 66 61 69 71 73 77 80 81 84 85 84 82 92 90 85 86 92 90 89 90 94 95 94 91 83 78
78 73 91 92 90 88 85 68 63 46 62 64 73 81 73 60 55 55 60 67 75 78 81 82 82 87 82 72 74 88 91 94 86 82 83 84 80 80 78 85 80 76 71
84 74 75 91 92 89 88 68 63 49 59 69 66 66 64 62 55 55 50 61 71 75 78 80 86 89 77 74 77 84 84 87 86 90 90 88 75 73 75 78 76 79 74
86 69 58 58 78 79 89 66 63 52 53 70 69 67 63 62 57 57 58 60 69 73 76 80 86 80 76 75 77 79 79 77 79 88 83 79 72 72 73 74 81 82 88
85 63 82 97 86 85 88 69 58 51 52 74 74 76 68 64 65 63 62 61 70 72 76 81 78 76 75 79 77 78 74 74 79 81 81 72 60 60 63 86 89 95 95
78 94 100 99 90 94 87 67 65 67 63 71 76 78 74 71 69 74 72 67 64 64 64 71 70 70 71 74 83 84 93 82 80 76 57 46 43 49 61 67 89 92 80
64 57 91 89 84 96 82 73 72 72 74 77 78 78 78 75 77 75 79 78 73 64 63 63 63 67 73 79 83 75 83 67 52 48 43 42 41 42 44 48 55 78 87
72 67 83 87 88 94 86 77 79 77 79 80 80 78 77 76 77 74 68 85 80 70 67 68 68 70 83 92 85 82 70 46 42 43 45 42 39 39 42 50 65 78 81
89 83 81 89 87 100 91 83 86 80 78 80 83 84 78 74 73 72 87 88 84 76 73 73 78 84 93 90 91 70 53 48 43 42 41 45 44 43 47 67 63 79 91
93 99 95 87 87 94 96 92 87 85 84 88 83 84 80 74 76 91 96 96 87 81 80 77 90 96 98 97 85 55 54 47 45 45 47 52 50 47 49 66 91 95 89
100 92 85 81 80 85 87 84 87 86 88 78 81 86 87 83 79 84 86 95 88 88 85 90 96 98 93 72 56 55 53 47 49 52 55 55 52 49 50 75 84 90 86
95 100 88 83 75 75 80 88 84 89 88 85 88 89 86 88 85 77 74 91 90 89 97 100 97 91 75 70 64 53 50 50 49 53 56 54 53 55 59 80 99 92 96
99 100 89 86 87 85 78 80 78 78 79 81 85 93 91 85 84 75 94 93 95 96 96 99 98 85 74 57 50 51 49 51 50 53 58 57 55 58 71 86 98 100 98
100 96 95 94 89 87 88 85 84 85 85 85 83 89 88 79 71 81 100 98 96 100 100 100 95 75 67 50 52 51 53 52 55 62 63 59 58 65 75 84 96 95 95
100 100 100 96 90 92 90 88 80 82 77 85 87 87 85 79 80 92 98 96 100 98 100 98 85 75 58 54 57 58 59 61 65 70 67 64 64 68 68 72 90 97 99
90 84 88 100 100 100 95 86 96 93 85 92 90 89 97 89 93 99 100 100 100 97 98 88 72 66 58 59 62 64 66 66 69 71 68 66 64 70 70 75 92 96 96
98 99 100 100 100 100 100 100 100 100 100 100 98 98 100 100 100 100 100 100 98 88 82 74 71 65 61 63 65 68 70 69 72 74 69 68 69 65 52 70 87 98 93